Wind_Speed
21 19 17 19 22 24 24 24 23 20 24 34 36 41 34 36 38 38 55 65 78 80 74 68 67 70 79 75 78 80 58 46 43 44 45 44 47 49 46 42 45 40 33 32
20 19 22 19 18 23 24 26 25 22 22 30 33 37 35 35 38 35 34 54 71 86 78 68 69 71 70 66 63 78 72 60 54 47 46 44 51 55 50 47 46 42 38 33
20 18 21 21 18 21 23 22 27 30 24 30 34 33 33 33 36 34 37 40 62 82 82 71 71 70 72 69 64 66 66 56 50 46 47 51 52 48 51 45 50 47 40 37
16 17 22 20 19 24 28 25 31 30 32 29 31 35 27 27 30 28 26 38 48 74 91 79 73 69 70 72 66 64 67 56 48 39 39 44 50 50 55 57 64 58 43 38
13 18 22 22 23 26 31 31 34 34 33 32 32 32 26 20 31 34 34 34 36 61 82 88 79 73 70 71 71 71 71 59 50 37 37 34 42 45 59 63 59 46 45 34
17 20 22 22 26 30 33 37 37 34 34 36 23 23 19 11 19 28 32 32 33 43 73 86 87 75 72 70 74 76 73 65 58 41 38 39 37 37 43 52 45 48 40 45
18 23 24 28 33 32 35 34 38 38 36 37 30 29 25 14 15 22 24 29 30 30 49 80 90 85 75 70 73 80 78 70 63 47 38 39 39 42 41 35 47 40 40 47
15 15 23 30 31 32 27 31 32 37 39 40 40 36 28 23 24 29 26 25 26 29 32 54 86 91 79 76 73 80 80 73 66 50 40 44 44 39 42 44 33 30 23 39
24 19 19 24 23 27 25 23 25 30 32 39 40 39 36 34 26 27 30 28 31 34 36 33 56 92 87 83 75 78 79 76 67 52 46 45 41 40 41 39 35 35 21 15
24 26 17 15 23 29 28 29 30 27 31 33 37 42 41 36 31 30 33 33 31 34 34 39 41 63 92 86 83 76 79 75 65 56 49 47 41 40 35 42 32 22 29 38
25 26 15 19 23 25 27 28 27 28 28 33 36 32 35 31 31 26 30 30 32 32 27 30 41 53 78 89 84 79 79 77 70 58 52 47 41 39 40 39 25 38 39 19
25 27 21 20 20 20 24 20 19 22 28 32 35 32 31 28 28 33 31 28 32 34 37 33 41 47 65 91 89 87 81 81 69 59 51 48 44 41 35 29 29 30 31 24
25 26 27 19 22 22 19 19 21 26 29 32 31 29 36 29 29 30 28 27 29 30 35 39 49 52 55 90 92 91 86 83 70 61 52 49 46 40 31 28 33 32 22 25
31 21 25 28 28 29 23 17 21 29 36 35 31 28 22 27 31 30 28 33 31 32 34 42 48 45 55 82 91 95 88 81 71 59 53 48 46 38 33 31 31 41 30 31
22 23 25 25 26 26 22 23 19 21 21 29 31 26 22 27 27 23 25 29 30 37 28 32 41 46 59 74 92 95 89 82 71 58 53 50 45 38 36 31 32 34 35 33
24 27 30 31 31 23 22 23 21 20 27 26 28 25 25 21 23 24 22 27 31 27 27 29 42 57 66 64 93 91 86 78 62 59 52 48 45 38 36 30 27 43 40 21
22 27 36 29 24 17 17 18 20 19 23 25 23 23 20 19 25 22 21 23 13 18 24 31 47 67 63 70 85 88 81 68 64 59 54 49 44 39 33 39 43 48 28 14
26 29 33 25 14 15 15 16 16 17 23 27 21 18 15 15 16 17 15 13 13 19 29 30 56 73 67 72 87 84 75 65 62 58 51 46 42 36 33 57 50 39 16 13
24 29 29 20 10 13 14 17 17 20 19 23 17 15 14 9 14 16 11 13 13 23 29 37 54 61 48 61 71 65 65 59 51 47 47 45 42 41 54 62 41 24 18 11
24 27 28 19 12 10 13 16 19 24 24 19 16 11 10 9 12 13 9 8 23 29 30 41 50 52 50 57 61 56 54 48 46 47 44 41 45 46 48 38 29 22 13 10
22 26 28 19 12 10 12 15 18 17 20 16 15 10 9 8 9 7 8 24 33 43 44 44 52 43 46 50 49 49 44 43 46 45 46 54 47 45 61 29 22 18 15 12
24 26 27 17 12 14 14 15 15 18 20 20 13 5 3 6 9 4 7 20 36 45 37 44 47 46 49 48 45 42 43 46 50 42 64 51 49 57 36 31 21 15 12 12
23 30 22 15 8 11 12 12 14 16 17 9 9 1 3 7 6 4 14 16 18 48 51 49 49 46 47 41 37 24 25 28 35 63 58 58 41 36 32 26 21 17 12 9
23 21 18 15 11 11 9 12 10 15 8 9 7 10 4 15 3 7 19 17 25 41 50 50 46 42 31 28 27 23 30 35 40 50 48 42 36 30 26 22 17 13 9 2
23 23 20 18 9 9 8 9 9 6 6 10 9 13 7 11 9 18 28 26 52 47 43 39 35 28 29 35 44 49 50 48 47 45 40 34 30 25 20 16 13 10 8 6
23 22 19 16 7 6 5 6 4 4 8 13 23 27 25 12 17 15 18 31 50 48 44 42 31 28 44 60 56 50 49 45 37 33 30 26 25 23 20 17 14 12 10 7
Wind_Direction
266 273 273 269 282 288 283 284 290 280 271 272 263 262 261 255 251 240 233 223 213 206 209 216 220 226 234 235 235 234 239 239 242 230 224 223 226 226 223 225 229 229 239 243
259 261 259 265 279 281 279 283 282 282 264 277 276 276 263 249 252 246 237 226 216 207 207 215 219 223 229 234 233 237 236 238 234 238 231 237 225 229 230 229 231 226 231 241
254 254 265 278 286 288 281 290 281 276 266 272 278 275 272 257 252 249 233 228 220 212 206 211 219 221 226 230 233 236 235 229 232 234 229 241 229 249 225 235 235 229 225 237
257 265 273 278 290 287 295 300 290 282 275 276 267 280 264 261 254 250 242 238 221 214 209 207 215 218 222 227 229 232 237 232 225 223 229 234 239 234 237 250 238 235 221 232
281 274 272 285 285 286 291 284 280 278 278 277 273 278 276 268 260 251 249 245 233 217 216 210 209 214 219 223 227 231 236 234 230 223 225 235 236 245 236 237 234 225 225 235
272 271 276 283 283 281 284 285 281 278 274 268 282 281 265 249 246 241 247 249 241 221 216 216 212 206 215 220 226 229 232 235 229 221 223 229 239 245 247 250 254 228 223 235
276 281 294 291 288 291 286 281 279 276 268 266 270 265 259 210 275 248 247 240 229 227 222 218 213 207 207 215 222 228 229 230 228 223 225 229 232 234 239 254 211 226 215 235
269 265 290 290 288 285 271 276 277 274 272 271 269 255 261 268 249 254 244 240 230 224 226 224 213 216 205 209 217 223 228 229 228 220 222 222 223 241 240 229 259 235 245 254
288 283 288 281 281 286 288 289 281 281 276 269 268 271 268 265 263 257 261 251 241 240 237 228 222 214 211 207 212 220 222 226 227 221 222 222 224 232 240 226 241 255 236 252
288 299 308 289 282 288 292 291 293 288 279 272 268 272 270 270 267 262 246 251 253 244 242 227 224 218 214 208 209 216 222 224 225 222 220 222 226 235 236 245 247 225 252 276
299 306 317 309 296 298 291 292 288 289 275 275 282 277 271 272 257 241 245 252 253 255 235 235 228 216 216 209 208 213 220 225 223 218 217 218 221 230 235 240 234 237 249 276
304 311 310 304 308 306 302 294 294 294 291 284 282 279 289 268 253 250 247 267 262 254 239 233 226 222 211 211 207 212 217 225 222 218 220 216 218 226 234 243 247 252 242 261
308 312 305 299 308 310 304 293 286 290 282 286 294 290 290 282 259 248 255 261 257 254 245 225 217 219 213 211 204 209 214 222 220 216 217 214 216 224 232 239 242 243 227 238
309 309 299 301 304 304 304 290 298 292 288 294 287 298 285 271 265 255 263 272 270 264 253 234 222 224 209 205 206 206 209 217 219 214 214 214 218 220 228 236 244 245 231 236
306 309 305 304 305 297 294 298 306 299 296 284 299 285 293 274 261 257 259 269 275 273 247 228 223 218 198 197 206 203 206 211 214 210 210 214 218 219 224 229 239 217 223 234
305 311 314 315 309 293 294 301 296 292 296 294 294 292 283 277 251 253 262 274 280 263 235 228 206 200 189 191 202 202 206 207 204 208 210 217 218 219 225 220 226 209 221 201
318 325 325 332 307 296 301 306 311 308 299 293 293 291 276 266 254 262 271 288 290 233 216 202 194 187 192 188 197 201 202 198 202 206 211 214 214 219 224 219 224 204 197 149
320 324 325 323 302 312 310 312 301 292 300 312 301 313 276 267 260 267 279 276 268 207 195 186 184 180 184 187 194 201 203 198 199 203 207 209 212 216 224 208 223 203 152 170
318 326 328 325 296 311 315 308 306 320 327 321 321 310 278 262 275 280 278 284 210 183 164 175 179 177 180 175 185 187 196 193 196 201 206 208 211 203 213 233 194 164 154 161
317 328 335 324 295 303 301 311 322 332 338 341 343 309 275 262 262 291 302 201 190 173 173 173 172 177 178 175 175 177 183 185 194 199 202 206 216 211 224 195 146 147 159 185
313 323 331 324 295 298 299 305 326 334 337 345 339 327 290 293 295 334 359 183 187 177 171 169 174 176 179 173 174 174 175 193 202 200 203 202 214 206 215 154 130 159 174 208
316 323 329 322 294 293 288 300 313 328 320 329 328 328 5 323 328 25 138 175 185 168 156 172 173 165 171 177 176 181 192 199 188 204 190 199 208 204 174 131 148 153 182 220
323 329 330 320 307 304 304 309 298 327 323 339 7 88 59 33 30 181 177 182 154 143 153 166 159 164 174 169 185 169 171 164 189 214 222 202 166 134 125 141 156 178 190 212
328 329 331 326 310 294 326 307 296 314 31 10 42 183 149 116 166 156 163 132 141 137 146 150 159 169 168 178 180 164 153 172 165 163 150 124 129 135 141 150 165 168 165 136
328 324 320 319 304 301 311 327 316 320 21 54 108 110 160 135 168 188 179 157 141 148 148 151 152 161 173 176 148 134 132 123 116 117 120 127 133 137 144 148 155 163 155 133
332 320 322 321 280 286 296 336 11 11 81 90 119 115 117 125 167 173 163 162 146 141 154 147 156 176 156 138 132 124 119 118 120 123 125 135 148 154 148 151 143 129 119 102
Height
5688 5688 5686 5684 5683 5681 5680 5679 5676 5676 5673 5669 5666 5667 5676 5674 5676 5683 5692 5702 5712 5722 5736 5735 5738 5743 5745 5755 5766 5781 5790 5804 5813 5822 5825 5830 5837 5840 5842 5843 5844 5849 5857 5861
5684 5683 5680 5680 5679 5676 5675 5672 5671 5669 5667 5662 5661 5659 5663 5666 5668 5674 5679 5687 5697 5711 5721 5723 5728 5734 5738 5744 5758 5771 5787 5801 5810 5817 5821 5824 5827 5833 5835 5836 5839 5844 5849 5853
5677 5676 5674 5673 5672 5670 5668 5667 5663 5660 5660 5657 5653 5651 5654 5657 5656 5660 5668 5675 5681 5694 5708 5714 5716 5724 5730 5736 5748 5761 5780 5793 5803 5809 5813 5817 5821 5825 5829 5831 5832 5839 5841 5844
5671 5670 5668 5667 5665 5661 5659 5661 5655 5654 5652 5651 5649 5639 5647 5648 5651 5653 5659 5662 5668 5676 5686 5699 5705 5711 5720 5727 5739 5750 5764 5779 5790 5799 5806 5810 5815 5819 5824 5825 5826 5827 5834 5832
5666 5664 5661 5660 5659 5657 5654 5652 5648 5645 5644 5642 5640 5640 5636 5644 5645 5647 5648 5651 5655 5664 5669 5679 5688 5700 5706 5715 5727 5739 5752 5766 5778 5789 5794 5799 5805 5808 5816 5816 5818 5815 5823 5824
5659 5657 5656 5654 5652 5649 5646 5642 5639 5638 5636 5631 5637 5635 5632 5634 5633 5635 5638 5641 5647 5650 5655 5663 5671 5685 5694 5703 5713 5725 5740 5754 5768 5781 5787 5792 5795 5799 5803 5804 5800 5800 5811 5817
5655 5651 5649 5646 5642 5641 5637 5635 5631 5629 5626 5623 5627 5626 5624 5630 5630 5629 5630 5630 5635 5640 5642 5648 5661 5666 5680 5690 5701 5714 5729 5744 5757 5773 5779 5782 5789 5793 5795 5793 5787 5795 5804 5809
5649 5651 5645 5640 5636 5632 5633 5628 5625 5619 5617 5615 5615 5612 5616 5622 5623 5620 5622 5625 5629 5632 5634 5640 5649 5655 5666 5678 5688 5702 5719 5733 5747 5764 5770 5774 5780 5783 5791 5793 5790 5797 5798 5806
5640 5643 5642 5633 5630 5625 5623 5622 5618 5612 5610 5606 5605 5606 5607 5610 5614 5614 5614 5618 5622 5626 5627 5629 5634 5645 5655 5667 5678 5690 5708 5723 5738 5755 5761 5765 5772 5780 5786 5793 5796 5796 5795 5802
5634 5630 5632 5627 5623 5619 5615 5613 5610 5606 5601 5597 5595 5594 5598 5602 5604 5605 5606 5608 5611 5616 5620 5623 5624 5632 5645 5656 5671 5683 5696 5714 5734 5748 5753 5762 5767 5774 5781 5788 5790 5783 5793 5797
5628 5626 5627 5621 5617 5614 5610 5606 5602 5598 5594 5591 5588 5589 5587 5591 5593 5595 5597 5601 5603 5605 5609 5613 5617 5622 5634 5648 5661 5676 5687 5704 5725 5738 5746 5756 5762 5767 5777 5781 5784 5787 5792 5793
5624 5618 5618 5616 5611 5607 5603 5599 5596 5591 5589 5585 5582 5578 5580 5580 5582 5586 5589 5591 5592 5593 5599 5603 5606 5612 5621 5636 5652 5668 5683 5694 5718 5731 5741 5749 5755 5761 5768 5774 5778 5784 5787 5790
5619 5615 5608 5610 5606 5601 5597 5593 5589 5586 5580 5579 5576 5574 5569 5571 5574 5579 5578 5578 5580 5581 5586 5590 5594 5600 5610 5625 5642 5658 5676 5690 5707 5724 5734 5742 5748 5757 5764 5770 5773 5777 5782 5783
5608 5609 5604 5601 5598 5593 5591 5586 5583 5579 5573 5571 5567 5565 5565 5564 5563 5566 5567 5567 5568 5567 5569 5573 5580 5587 5599 5613 5631 5649 5670 5687 5701 5714 5727 5736 5742 5751 5758 5764 5768 5771 5773 5775
5606 5603 5598 5595 5591 5587 5584 5579 5577 5572 5569 5563 5560 5556 5556 5553 5553 5555 5556 5556 5554 5552 5554 5561 5567 5576 5589 5603 5619 5643 5663 5681 5694 5707 5721 5730 5739 5747 5753 5761 5762 5763 5767 5773
5602 5598 5593 5590 5584 5579 5577 5573 5570 5568 5562 5556 5552 5550 5547 5544 5544 5546 5547 5546 5541 5538 5540 5546 5554 5566 5582 5597 5617 5638 5658 5675 5691 5702 5716 5726 5736 5743 5751 5756 5758 5753 5762 5767
5598 5592 5585 5582 5575 5573 5572 5568 5565 5561 5555 5549 5545 5543 5539 5537 5536 5539 5540 5538 5533 5533 5534 5537 5547 5562 5578 5594 5614 5635 5655 5672 5685 5699 5713 5723 5731 5738 5745 5751 5750 5749 5756 5762
5594 5588 5582 5576 5571 5570 5567 5564 5561 5557 5550 5544 5539 5537 5534 5533 5533 5535 5535 5531 5525 5527 5532 5538 5547 5562 5579 5597 5617 5638 5656 5670 5683 5698 5709 5719 5727 5734 5737 5736 5743 5746 5753 5759
5591 5585 5578 5571 5568 5567 5563 5560 5558 5554 5550 5542 5537 5534 5532 5531 5531 5531 5531 5526 5526 5529 5534 5544 5557 5574 5589 5607 5626 5641 5657 5671 5683 5695 5705 5713 5720 5728 5725 5737 5733 5738 5751 5759
5587 5582 5575 5569 5565 5563 5560 5557 5552 5548 5545 5539 5534 5531 5530 5531 5530 5530 5528 5525 5530 5538 5546 5554 5569 5585 5600 5614 5630 5642 5656 5669 5681 5690 5702 5711 5716 5719 5726 5725 5731 5740 5750 5754
5584 5578 5572 5566 5562 5561 5558 5555 5551 5548 5545 5538 5534 5532 5532 5533 5532 5531 5531 5531 5535 5545 5553 5564 5578 5595 5609 5623 5635 5645 5659 5670 5678 5687 5694 5702 5705 5717 5721 5724 5734 5745 5747 5753
5580 5575 5569 5563 5559 5558 5554 5553 5549 5546 5541 5535 5533 5534 5535 5536 5534 5534 5536 5539 5541 5544 5552 5573 5586 5599 5614 5626 5636 5649 5659 5668 5678 5683 5677 5688 5705 5713 5716 5723 5737 5745 5748 5752
5576 5570 5564 5561 5558 5555 5553 5550 5546 5544 5540 5536 5535 5536 5539 5540 5540 5542 5546 5547 5548 5554 5566 5583 5597 5607 5620 5631 5638 5647 5656 5663 5672 5679 5688 5690 5704 5711 5722 5731 5735 5741 5746 5750
5573 5567 5562 5559 5557 5553 5551 5547 5546 5544 5540 5540 5538 5539 5544 5545 5544 5548 5552 5559 5561 5568 5584 5594 5606 5618 5627 5635 5642 5648 5656 5664 5672 5679 5685 5696 5708 5718 5722 5729 5736 5742 5744 5746
5570 5564 5560 5557 5554 5551 5550 5547 5545 5545 5543 5541 5542 5545 5547 5551 5553 5555 5559 5565 5578 5584 5596 5605 5615 5623 5631 5637 5643 5651 5658 5667 5676 5686 5696 5703 5710 5717 5725 5731 5736 5739 5744 5748
5566 5561 5557 5554 5553 5551 5550 5548 5547 5547 5547 5544 5548 5550 5553 5554 5559 5559 5564 5567 5576 5594 5605 5614 5622 5628 5633 5640 5648 5657 5664 5674 5684 5691 5698 5707 5716 5723 5727 5732 5736 5739 5741 5745